Weather History for KNUW - September, 2013

Change the Weather History Date:

Monday, September 16, 2013

  Actual Average Record
Temperature  
Mean Temperature 59 °F -  
Max Temperature 64 °F 61 °F 68 °F (2014)
Min Temperature 55 °F 46 °F 45 °F (2006)
Degree Days  
Heating Degree Days 6    
Growing Degree Days 9 (Base 50)    
Moisture  
Dew Point 56 °F    
Average Humidity 88    
Maximum Humidity 96    
Minimum Humidity 67    
Precipitation  
Precipitation 0.06 in - - ()
Sea Level Pressure  
Sea Level Pressure 29.90 in    
Wind  
Wind Speed 5 mph (South)    
Max Wind Speed 13 mph    
Max Gust Speed 20 mph    
Visibility 6 miles    
Events Rain    
Averages and records for this station are not official NWS values.
T = Trace of Precipitation, MM = Missing Value Source: NWS Daily Summary

Daily Weather History Graph

Daily Weather History Graph

Search for Another Location

Airport or City:

Trip Planner

Search our weather history database for the weather conditions in past years. The results will help you decide how hot, cold, wet, or windy it might be!

Date:

Astronomy

Sep. 16, 2013 Rise Set
Actual Time 6:49 AM PDT 7:20 PM PDT
Civil Twilight 6:17 AM PDT 7:51 PM PDT
Nautical Twilight 5:40 AM PDT 8:28 PM PDT
Astronomical Twilight 5:01 AM PDT 9:07 PM PDT
Moon 5:41 PM PDT (9/16) 3:30 AM PDT (9/16)
Length of Visible Light 13h 33m
Length of Day
12h 30m
Waxing Gibbous, 91% of the Moon is Illuminated
Sep 16
Waxing Gibbous
Sep 19
Full
Sep 26
Last Quarter
Oct 4
New
Oct 11
First Quarter

Hourly Weather History & Observations

Time (PDT) Temp. Dew Point Humidity Pressure Visibility Wind Dir Wind Speed Gust Speed Precip Events Conditions
12:32 AM 59.0 °F 57.2 °F 94% 29.81 in 4.0 mi SE 3.5 mph - 0.00 in Rain Light Rain
12:56 AM 59.0 °F 57.9 °F 96% 29.82 in 4.0 mi SE 3.5 mph - 0.00 in Rain Light Rain
1:56 AM 60.1 °F 57.9 °F 93% 29.83 in 4.0 mi SE 4.6 mph - 0.00 in Rain Light Rain
2:03 AM 60.8 °F 57.2 °F 88% 29.81 in 1.5 mi SSE 4.6 mph - 0.00 in Rain Light Rain
2:56 AM 60.1 °F 57.9 °F 93% 29.83 in 1.5 mi SE 4.6 mph - 0.00 in Rain Light Rain
3:56 AM 60.1 °F 57.9 °F 93% 29.84 in 3.0 mi SE 5.8 mph - 0.00 in Rain Light Rain
4:56 AM 60.1 °F 59.0 °F 96% 29.86 in 3.0 mi Calm Calm - 0.06 in Rain Light Rain
5:56 AM 59.0 °F 57.9 °F 96% 29.87 in 3.0 mi SE 5.8 mph - N/A Rain Light Rain
6:23 AM 59.0 °F 57.2 °F 94% 29.86 in 4.0 mi SE 5.8 mph - 0.00 in Rain Light Rain
6:56 AM 59.0 °F 57.9 °F 96% 29.88 in 3.0 mi SE 8.1 mph - 0.00 in Rain Light Rain
7:45 AM 60.8 °F 57.2 °F 88% 29.87 in 4.0 mi East 5.8 mph - 0.00 in   Overcast
7:56 AM 60.1 °F 57.9 °F 93% 29.89 in 7.0 mi ESE 3.5 mph - 0.00 in   Overcast
8:00 AM 60.8 °F 57.2 °F 88% 29.88 in 7.0 mi ESE 3.5 mph - 0.00 in Rain Light Rain
8:56 AM 60.1 °F 57.9 °F 93% 29.90 in 7.0 mi SE 9.2 mph - 0.00 in Rain Light Rain
9:56 AM 60.1 °F 57.9 °F 93% 29.91 in 2.0 mi SE 8.1 mph - 0.00 in Rain Light Rain
10:56 AM 60.1 °F 59.0 °F 96% 29.91 in 2.0 mi SE 10.4 mph - 0.00 in Rain Light Rain
11:24 AM 60.8 °F 59.0 °F 94% 29.91 in 2.0 mi SSE 9.2 mph - 0.00 in   Overcast
11:50 AM 60.8 °F 59.0 °F 94% 29.92 in 2.0 mi SSE 6.9 mph - 0.00 in Rain Light Rain
11:53 AM 60.8 °F 59.0 °F 94% 29.92 in 3.0 mi South 6.9 mph - 0.00 in Rain Light Rain
11:56 AM 61.0 °F 59.0 °F 93% 29.94 in 4.0 mi South 5.8 mph - 0.00 in Rain Light Rain
12:08 PM 57.2 °F 55.4 °F 94% 29.93 in 0.5 mi West 6.9 mph - 0.00 in Rain Light Rain
12:56 PM 59.0 °F 57.0 °F 93% 29.95 in 0.5 mi Calm Calm - 0.00 in   Overcast
1:30 PM 60.8 °F 59.0 °F 94% 29.93 in 7.0 mi Calm Calm - N/A   Overcast
1:41 PM 62.6 °F 57.2 °F 82% 29.93 in 8.0 mi WSW 3.5 mph - N/A   Overcast
1:56 PM 62.1 °F 57.0 °F 84% 29.94 in 8.0 mi SW 5.8 mph - N/A   Mostly Cloudy
2:56 PM 63.0 °F 55.9 °F 78% 29.95 in 10.0 mi SW 12.7 mph - N/A   Overcast
3:56 PM 61.0 °F 55.0 °F 81% 29.94 in 10.0 mi SW 11.5 mph - N/A   Mostly Cloudy
4:56 PM 59.0 °F 53.1 °F 81% 29.93 in 10.0 mi SW 10.4 mph 19.6 mph N/A   Mostly Cloudy
5:56 PM 57.9 °F 52.0 °F 81% 29.93 in 10.0 mi SW 5.8 mph - N/A   Mostly Cloudy
6:56 PM 57.0 °F 50.0 °F 77% 29.94 in 10.0 mi SW 8.1 mph - N/A   Mostly Cloudy
7:56 PM 57.9 °F 48.0 °F 70% 29.94 in 9.0 mi SSW 4.6 mph - 0.00 in Rain Light Rain
8:08 PM 57.2 °F 46.4 °F 67% 29.92 in 10.0 mi WSW 9.2 mph - 0.00 in   Overcast
8:56 PM 57.0 °F 48.9 °F 74% 29.94 in 10.0 mi WSW 6.9 mph - 0.00 in Rain Light Rain
9:22 PM 57.2 °F 50.0 °F 77% 29.93 in 10.0 mi West 5.8 mph - 0.00 in   Overcast
9:56 PM 57.0 °F 50.0 °F 77% 29.94 in 10.0 mi West 5.8 mph - 0.00 in   Mostly Cloudy
10:56 PM 55.9 °F 51.1 °F 84% 29.94 in 10.0 mi West 8.1 mph - N/A   Overcast
11:56 PM 55.9 °F 51.1 °F 84% 29.95 in 10.0 mi WSW 5.8 mph - N/A   Overcast